Location: Meanaryar
(48.4161°N, 4.7315°W)
Time: 08:21:04
(UTC+00:00)

Cosmos 1092 Rocket - Pass Details

Date: 19 January 2021
Orbit: 954 x 995 km, 83.0° (Epoch: 02 March)

Event Time Altitude Azimuth Distance (km) Brightness Sun altitude
Rises 04:38:42 0° 1° (N) 3,646 7.1 -33.3°
Reaches altitude 10° 04:42:20 10° 22° (NNE) 2,694 6.6 -32.7°
Maximum altitude 04:46:01 16° 60° (ENE) 2,275 6.5 -32.1°
Drops below altitude 10° 04:49:41 10° 97° (E) 2,689 7.2 -31.5°
Sets 04:53:17 0° 118° (ESE) 3,635 7.8 -30.9°
